Theta_e
300 302 303 302 303 303 300 298 297 299 300 305 312 313 316 319 323 321 322 325 323 323 326 331 333 334 334 332 333 333 330 331 331 336 337 337 335 335 335 335 335 335 335 335
298 303 303 301 303 304 304 303 302 304 304 310 315 315 315 317 321 321 326 323 324 327 329 331 331 332 333 332 333 334 333 333 335 333 333 333 333 335 335 335 335 334 334 336
294 302 300 296 301 303 304 304 307 303 306 314 315 315 316 317 321 324 327 327 328 329 330 329 326 326 325 325 327 326 326 325 326 328 328 328 330 330 331 331 332 332 332 332
296 296 291 300 304 307 307 308 310 312 312 314 316 318 320 322 322 325 329 324 322 322 322 322 323 323 323 322 321 321 321 322 322 323 323 324 324 323 325 327 326 326 326 327
295 293 296 300 305 306 304 306 313 313 314 319 321 321 319 323 326 323 319 318 319 319 319 319 317 317 316 314 315 316 316 316 317 317 318 319 317 318 320 319 319 320 321 322
294 294 292 299 307 309 309 300 314 317 315 319 320 310 314 320 321 318 317 316 316 316 316 315 315 316 314 313 312 311 312 313 313 313 313 313 313 314 315 314 313 314 314 316
295 293 297 302 310 310 297 300 317 321 317 320 315 313 317 319 316 315 314 313 313 312 311 311 313 313 310 309 308 310 311 310 310 309 310 310 309 310 311 310 309 310 311 312
296 294 295 310 311 303 305 311 318 317 316 313 314 315 315 315 314 313 311 311 310 308 308 309 310 310 308 308 309 309 308 308 308 308 308 308 307 307 307 307 306 307 308 309
298 299 305 310 308 312 313 313 315 313 315 315 314 313 313 311 311 310 310 309 309 307 307 307 308 309 306 307 307 306 305 304 305 306 306 306 304 304 303 304 304 304 305 306
304 305 310 312 312 313 314 313 313 316 316 316 312 311 309 309 308 308 308 308 307 305 305 304 305 306 307 307 306 305 303 303 303 303 304 303 303 303 302 302 302 303 303 302
304 308 312 313 313 312 313 314 314 315 315 312 311 308 308 307 306 306 306 305 305 304 304 304 305 305 306 306 304 303 303 303 303 303 302 302 303 302 302 304 303 302 301 302
301 308 310 311 312 314 313 313 313 312 311 311 310 308 308 305 305 304 304 304 303 303 304 304 305 305 306 306 305 303 302 302 302 302 301 301 300 300 302 301 300 299 298 299
306 309 310 312 314 315 312 311 312 311 311 308 308 308 306 304 304 305 304 303 303 303 304 305 304 304 306 306 305 304 302 302 303 302 300 300 300 298 297 300 300 299 298 297
312 312 310 312 310 312 312 311 311 309 309 308 307 307 306 304 305 303 303 304 304 304 304 305 304 304 306 306 305 305 304 303 304 301 300 299 299 299 299 298 298 299 300 299
312 313 311 312 311 309 310 310 308 307 307 307 307 306 305 304 303 303 304 304 305 304 303 304 304 305 307 306 305 305 304 304 303 301 300 300 300 299 299 300 300 300 300 299
310 310 312 311 309 308 308 308 306 306 307 307 307 306 306 305 304 304 304 304 303 303 303 303 302 304 306 306 305 305 304 306 306 304 301 299 299 299 299 299 299 299 299 299
308 306 308 307 307 307 307 308 308 308 308 307 307 306 305 304 303 303 303 303 304 304 304 304 304 306 306 306 304 304 303 302 304 304 300 299 299 298 299 299 299 299 299 300
314 313 313 311 308 307 306 308 309 308 308 308 307 305 304 303 303 303 304 304 304 303 304 305 306 306 306 305 304 303 302 302 301 300 300 299 299 300 299 300 300 299 299 300
314 312 311 311 310 308 306 308 309 309 308 307 306 304 305 305 305 304 303 303 303 302 305 306 308 309 306 304 309 305 302 302 302 300 299 299 299 300 300 300 300 299 299 298
310 310 309 308 308 308 308 310 309 307 307 306 305 304 304 305 303 303 303 303 303 304 306 306 307 305 304 303 307 306 304 302 300 299 298 299 299 299 300 299 299 299 299 298
308 308 307 307 306 307 309 310 309 306 306 306 305 304 303 304 303 303 302 301 305 306 306 308 307 305 303 305 307 304 301 299 299 298 298 299 299 300 299 299 298 298 297 296
306 306 305 306 307 307 309 308 307 306 305 304 304 303 302 301 302 302 302 303 305 306 306 304 304 305 307 311 303 300 300 299 299 299 299 299 299 298 298 297 296 296 295 295
305 305 306 307 307 306 304 305 305 304 303 302 302 302 301 302 302 301 302 305 304 305 306 305 305 309 309 303 301 300 300 299 299 299 299 299 299 298 297 296 295 295 295 295
304 304 304 304 304 302 301 302 302 303 303 303 303 303 302 302 303 302 303 304 304 305 306 305 306 308 302 301 300 300 300 300 299 299 299 298 299 298 297 296 296 296 297 297
304 303 303 303 303 302 302 302 302 303 302 303 303 303 303 303 304 306 305 306 305 305 305 305 306 303 301 300 300 300 299 299 299 298 299 298 298 297 297 297 297 297 297 298
304 304 304 305 305 304 304 304 304 305 304 304 305 306 306 306 305 305 307 305 307 305 305 304 303 301 300 300 300 300 299 299 299 299 298 298 298 298 298 298 298 297 297 297
303 302 303 303 304 304 305 306 306 307 306 306 307 308 308 307 307 306 304 307 307 305 304 303 302 301 301 301 300 299 299 299 296 298 299 299 299 299 299 298 298 296 296 296
Wind_Speed
2 2 4 3 4 5 5 4 6 6 8 5 10 10 8 6 2 4 3 1 5 4 2 4 4 4 5 5 5 4 4 2 5 5 6 8 9 7 4 5 4 4 4 4
2 2 3 1 1 4 4 2 4 1 4 3 5 6 5 7 5 3 2 6 4 4 5 4 3 3 4 8 7 5 4 4 5 4 1 5 5 4 3 3 3 3 4 4
2 4 4 4 4 6 3 5 7 4 4 5 4 8 7 7 7 5 5 3 3 4 5 5 7 8 10 9 10 11 10 9 8 7 6 7 7 8 7 6 5 4 4 4
4 2 1 7 4 5 4 1 5 2 7 5 5 4 5 4 4 4 5 7 7 6 6 8 10 11 10 11 11 10 9 9 8 6 6 6 5 5 4 3 4 4 5 6
6 4 5 2 3 2 2 4 4 2 6 7 8 5 5 2 5 6 7 8 8 8 9 10 11 9 11 9 7 6 7 6 5 5 6 7 8 8 7 7 7 7 7 8
2 6 7 8 2 3 5 5 5 6 7 10 7 4 3 6 9 10 9 8 10 11 9 9 6 6 9 7 7 8 8 8 7 8 8 8 8 8 6 6 7 7 9 8
3 2 6 6 4 5 5 10 3 6 6 6 4 1 8 13 11 10 9 10 9 9 7 5 4 6 9 8 9 6 6 6 7 6 6 6 6 4 7 8 8 7 9 9
4 3 5 2 4 8 7 1 4 5 5 10 13 11 11 13 13 12 11 9 7 7 6 5 5 6 7 7 4 5 5 5 5 6 6 6 7 6 7 7 8 9 9 10
8 8 3 3 3 2 5 6 6 7 10 16 15 11 10 9 10 8 9 8 6 8 7 4 4 5 6 3 4 3 3 3 3 1 3 4 5 6 6 6 7 8 7 8
3 2 3 2 2 1 3 3 6 12 15 15 15 11 12 10 8 6 5 5 5 7 7 5 4 4 4 3 3 3 2 2 2 3 5 4 5 5 6 6 7 8 9 10
2 3 1 3 1 4 7 11 13 10 10 14 16 10 9 7 6 5 5 4 3 5 4 4 3 3 4 5 5 4 2 1 3 3 4 4 5 5 6 8 8 10 10 11
7 9 7 6 8 8 12 12 11 18 10 6 9 11 9 7 5 5 5 3 3 3 3 2 2 2 2 2 1 1 3 3 3 3 4 4 5 7 6 11 16 16 17 13
2 3 2 6 8 4 10 11 10 12 11 12 5 8 6 5 4 6 5 5 4 4 3 2 3 4 3 3 2 3 4 5 4 5 5 6 8 9 11 9 15 16 15 15
5 9 6 4 6 10 11 10 12 10 8 9 7 6 5 5 4 5 5 4 3 1 1 3 4 6 4 3 3 5 5 9 5 5 6 6 7 8 9 11 12 10 11 13
6 2 6 12 12 10 11 13 13 10 8 7 5 7 7 7 6 5 4 3 2 1 4 4 5 9 3 4 5 6 5 5 5 6 6 8 7 8 9 12 12 11 11 11
6 7 12 14 14 13 13 9 12 8 8 6 7 7 6 6 5 4 3 3 3 3 4 4 6 9 5 4 5 5 5 12 11 6 6 7 8 9 10 12 12 12 11 11
13 7 9 9 14 14 12 10 11 12 9 9 7 6 6 5 4 2 2 4 4 5 5 4 8 6 5 4 4 5 5 6 12 7 7 8 8 10 12 12 12 12 12 12
8 15 18 21 16 13 9 8 10 10 9 7 7 7 6 5 5 4 4 2 3 6 6 6 6 6 6 5 4 5 5 6 6 8 8 9 10 11 12 12 12 12 12 12
4 11 10 12 12 11 11 10 10 9 8 8 8 7 6 5 3 3 2 2 4 5 8 5 8 6 5 8 10 3 5 6 7 7 7 12 10 12 12 12 12 13 12 11
8 8 11 11 10 10 11 8 10 9 7 8 6 5 5 4 4 3 3 5 6 6 6 7 6 5 6 7 10 3 4 6 7 8 7 9 10 12 12 14 13 12 12 11
11 10 12 12 10 10 10 10 10 9 7 7 7 7 6 5 4 3 2 3 6 3 5 8 4 4 3 6 4 3 4 5 6 7 8 9 11 11 11 12 12 12 12 11
11 12 12 12 12 9 8 8 7 7 6 5 4 4 5 5 4 4 6 6 5 4 4 4 3 5 4 6 2 3 4 5 5 6 7 9 9 10 11 11 11 11 11 11
10 11 12 12 12 11 7 7 7 7 7 6 6 6 6 4 4 3 4 3 3 5 4 4 5 6 3 3 2 3 4 5 6 7 8 8 9 9 10 11 11 11 11 11
12 10 8 10 12 10 8 5 6 6 6 6 6 5 4 3 4 4 4 8 10 8 5 3 2 4 6 2 3 3 4 5 6 7 7 9 8 9 10 10 11 11 11 13
11 9 9 11 10 7 7 6 5 5 5 4 5 5 5 4 4 2 2 5 8 5 2 1 5 6 3 2 1 3 4 4 6 6 7 7 8 9 9 10 11 12 11 12
11 9 8 9 7 6 5 5 4 4 3 3 3 3 3 4 4 4 4 5 4 2 2 1 1 2 2 1 2 4 4 4 5 5 7 6 7 8 10 11 11 11 11 12
6 7 5 4 3 4 6 6 5 4 5 4 4 3 3 3 3 3 3 3 2 1 1 1 0 3 2 1 2 3 2 3 4 4 6 5 7 9 11 11 11 11 12 12
Wind_Direction
302 189 138 202 197 164 172 180 165 236 199 280 199 205 226 230 251 307 349 210 136 135 135 332 305 204 203 174 155 181 63 37 90 118 176 228 239 233 203 192 193 189 190 214
148 265 119 68 220 172 218 136 298 264 238 321 129 124 181 210 167 226 258 239 152 159 89 36 51 115 96 92 115 138 97 30 359 27 248 250 270 292 304 312 319 316 286 281
225 5 45 2 221 204 196 174 156 178 216 175 146 190 196 182 179 182 209 199 48 17 38 54 36 55 46 44 48 51 58 53 46 37 29 10 7 13 2 350 339 319 316 314
159 38 147 238 296 212 143 303 201 275 140 166 166 109 142 184 187 168 99 81 52 51 61 63 76 77 75 59 56 57 48 42 34 25 27 20 24 18 356 354 349 334 321 316
127 167 271 142 178 160 161 252 198 177 114 122 125 102 36 68 54 85 91 80 86 79 70 71 65 76 85 70 76 73 69 55 42 38 28 26 19 5 1 356 346 339 325 320
137 147 185 221 191 123 116 295 195 151 168 152 156 117 208 114 103 95 91 89 83 74 71 73 72 85 88 89 77 55 38 33 31 26 23 15 359 346 336 338 320 318 320 306
120 183 289 243 177 147 92 239 158 141 141 144 122 92 120 111 97 93 89 79 71 75 84 85 73 78 74 69 62 57 49 47 39 26 12 359 342 326 332 330 319 310 296 297
102 108 255 167 118 149 207 254 150 114 119 107 117 110 111 115 118 118 114 107 101 94 78 53 57 85 94 89 80 69 59 49 33 16 3 344 329 320 312 301 295 293 297 303
170 204 227 272 258 325 156 162 168 122 129 128 125 126 124 118 113 116 121 124 124 122 114 105 113 117 108 125 104 118 103 84 63 307 257 248 254 272 288 291 282 291 289 274
93 277 301 350 324 146 146 136 114 125 135 136 130 129 118 119 120 115 112 114 126 127 129 132 143 127 115 132 144 139 123 26 346 307 310 314 310 302 298 292 290 294 297 298
315 297 316 289 202 140 103 108 109 97 115 125 122 121 124 124 122 123 121 118 117 119 121 119 124 139 161 165 165 160 182 232 268 263 273 284 269 276 300 300 290 302 301 300
218 203 165 218 154 144 137 135 133 125 111 78 122 128 132 131 133 126 126 125 123 137 139 173 221 246 235 209 182 264 300 289 283 287 285 295 308 321 311 302 302 292 287 282
243 136 82 114 107 90 119 120 109 107 123 123 100 123 119 129 145 141 141 149 154 162 181 225 282 289 273 260 254 271 267 276 282 305 321 327 330 328 322 315 278 278 275 273
139 110 61 182 158 121 115 105 97 88 91 113 123 119 120 121 129 154 170 180 155 141 289 291 305 289 297 301 291 283 283 285 290 299 303 308 303 303 300 293 302 300 277 274
187 329 130 116 111 109 118 123 115 119 121 114 114 135 146 146 157 177 171 163 153 288 287 298 298 286 308 286 281 288 287 284 276 274 272 271 279 290 287 293 298 299 299 288
99 94 125 133 130 131 129 125 124 137 144 143 147 162 162 151 151 152 154 159 173 251 276 277 275 270 280 276 275 282 269 272 271 270 283 291 294 294 299 303 305 303 302 299
111 99 112 129 150 156 155 154 157 158 149 155 164 152 141 141 131 149 218 225 237 269 276 266 269 285 282 273 279 279 277 277 277 286 289 290 291 293 298 304 302 301 298 297
174 169 172 157 152 151 155 139 140 144 155 153 132 131 133 154 189 207 235 262 303 302 278 268 254 267 279 290 285 278 269 278 296 295 298 297 296 300 299 295 297 297 298 297
143 143 136 149 151 141 138 137 143 141 131 136 136 160 176 188 177 192 178 255 282 294 284 299 292 305 299 293 306 266 280 292 296 297 299 300 303 299 298 296 299 299 298 297
104 101 112 115 117 129 122 120 131 134 136 130 128 145 183 192 177 200 203 252 245 235 290 294 303 288 286 297 312 303 303 304 302 302 302 305 303 303 302 303 303 304 303 303
124 124 122 123 113 114 128 138 134 142 146 143 160 179 186 190 202 200 237 286 277 272 298 299 287 284 294 303 312 323 316 310 314 316 314 312 308 310 313 313 313 315 314 311
128 128 124 122 121 112 123 130 126 124 138 156 168 156 168 207 211 238 234 227 289 347 297 303 295 288 291 329 10 343 333 333 325 322 319 315 313 317 318 319 320 317 313 311
125 127 124 125 130 132 125 129 133 143 158 173 181 184 195 204 194 199 279 239 252 278 292 291 278 294 23 55 28 3 344 334 335 323 316 316 319 321 322 322 319 317 317 317
119 120 113 119 124 124 134 161 154 164 175 185 192 192 176 207 271 223 249 283 276 285 286 254 303 66 78 54 22 352 339 348 333 324 316 321 327 327 326 325 323 323 322 319
127 120 124 133 143 155 150 155 148 167 176 190 199 201 206 209 212 239 227 265 270 268 271 53 69 90 81 60 9 349 2 350 336 323 330 329 330 330 325 328 327 325 323 324
143 147 153 159 159 155 148 155 176 186 180 218 245 215 213 227 238 255 272 272 300 315 164 87 46 121 102 94 24 17 5 344 335 328 325 313 313 322 327 331 329 326 326 324
96 111 117 106 127 155 165 179 172 196 194 201 228 209 231 216 212 220 278 300 321 192 195 257 57 139 126 95 36 17 340 326 319 305 284 315 322 323 328 327 326 330 323 321